Check out our new BloomSky Weather System.

Active alerts

Houston, TX
  Details for Houston, TX Dense Fog Advisory


Thunder radar  blitzortung!


Rain radar more information rain snow radar


Visit our other weather sites:

Template documentation
and downloads

And another site



Weather Underground History page Text

Daily Summary for May 27, 2017 Units:  English    Metric   Both
« Previous Day
Next Day »
Daily Weekly Monthly Yearly Custom
  High: Low: Average:
Temperature: 94.3 °F 79.9 °F 85.3 °F
Dew Point: 78.8 °F 73.9 °F 76.8 °F
Humidity: 91 % 55 % 77 %
Wind Speed: 14.0 mph 1.0 mph 5.8 mph
Wind Gust: 20.0 mph - -
Wind:- - SSE
Pressure: 29.92 in 29.83 in -
Precipitation: 0.00 in    
Historical Graphs
 
 
Tabular Data for May 27, 2017
Time Temperature Dew Point Pressure Wind Wind Speed Wind Gust Humidity Rainfall Rate (Hourly)
00:04 80.8 °F 76.8 °F 29.88 in SSE 4.0 mph 11.0 mph 88 % 0.00 in
00:09 80.6 °F 76.6 °F 29.88 in SE 10.0 mph 11.0 mph 88 % 0.00 in
00:14 80.6 °F 76.6 °F 29.88 in SSE 12.0 mph 12.0 mph 88 % 0.00 in
00:19 80.6 °F 76.6 °F 29.88 in South 4.0 mph 14.0 mph 88 % 0.00 in
00:24 80.6 °F 76.3 °F 29.88 in SE 3.0 mph 14.0 mph 87 % 0.00 in
00:29 80.6 °F 76.3 °F 29.88 in SSE 4.0 mph 14.0 mph 87 % 0.00 in
00:34 80.6 °F 76.3 °F 29.89 in SSW 14.0 mph 14.0 mph 87 % 0.00 in
00:39 80.4 °F 76.5 °F 29.88 in SW 7.0 mph 14.0 mph 88 % 0.00 in
00:44 80.4 °F 76.5 °F 29.88 in SE 5.0 mph 14.0 mph 88 % 0.00 in
00:49 80.4 °F 76.5 °F 29.88 in SSE 5.0 mph 14.0 mph 88 % 0.00 in
00:55 80.4 °F 76.5 °F 29.88 in South 4.0 mph 13.0 mph 88 % 0.00 in
01:00 80.4 °F 76.5 °F 29.88 in ESE 5.0 mph 11.0 mph 88 % 0.00 in
01:05 80.4 °F 76.5 °F 29.88 in SSE 3.0 mph 8.0 mph 88 % 0.00 in
01:10 80.4 °F 76.5 °F 29.88 in South 6.0 mph 11.0 mph 88 % 0.00 in
01:15 80.4 °F 76.5 °F 29.88 in SW 9.0 mph 11.0 mph 88 % 0.00 in
01:20 80.4 °F 76.5 °F 29.87 in SW 6.0 mph 12.0 mph 88 % 0.00 in
01:25 80.4 °F 76.8 °F 29.87 in SSE 8.0 mph 12.0 mph 89 % 0.00 in
01:30 80.4 °F 76.8 °F 29.88 in SSE 10.0 mph 12.0 mph 89 % 0.00 in
01:35 80.4 °F 76.8 °F 29.88 in South 3.0 mph 12.0 mph 89 % 0.00 in
01:40 80.4 °F 76.8 °F 29.88 in SSE 6.0 mph 11.0 mph 89 % 0.00 in
01:45 80.4 °F 76.8 °F 29.88 in SE 4.0 mph 11.0 mph 89 % 0.00 in
01:50 80.4 °F 76.8 °F 29.87 in SE 3.0 mph 8.0 mph 89 % 0.00 in
01:55 80.4 °F 76.8 °F 29.87 in South 3.0 mph 8.0 mph 89 % 0.00 in
02:00 80.4 °F 76.8 °F 29.87 in SSW 4.0 mph 8.0 mph 89 % 0.00 in
02:05 80.4 °F 76.8 °F 29.87 in SSE 4.0 mph 12.0 mph 89 % 0.00 in
02:10 80.4 °F 76.8 °F 29.87 in ESE 3.0 mph 12.0 mph 89 % 0.00 in
02:15 80.4 °F 76.8 °F 29.87 in SSE 3.0 mph 12.0 mph 89 % 0.00 in
02:20 80.4 °F 76.8 °F 29.87 in SE 3.0 mph 11.0 mph 89 % 0.00 in
02:25 80.4 °F 76.8 °F 29.86 in South 3.0 mph 11.0 mph 89 % 0.00 in
02:30 80.4 °F 76.8 °F 29.86 in SE 7.0 mph 11.0 mph 89 % 0.00 in
02:35 80.4 °F 76.8 °F 29.86 in SE 3.0 mph 10.0 mph 89 % 0.00 in
02:40 80.4 °F 76.8 °F 29.86 in ESE 6.0 mph 12.0 mph 89 % 0.00 in
02:45 80.4 °F 76.8 °F 29.86 in SSW 5.0 mph 12.0 mph 89 % 0.00 in
02:50 80.4 °F 76.8 °F 29.86 in South 6.0 mph 11.0 mph 89 % 0.00 in
02:55 80.4 °F 76.8 °F 29.86 in SSE 3.0 mph 11.0 mph 89 % 0.00 in
03:00 80.4 °F 76.8 °F 29.86 in South 3.0 mph 9.0 mph 89 % 0.00 in
03:05 80.4 °F 77.2 °F 29.86 in SSE 5.0 mph 9.0 mph 90 % 0.00 in
03:10 80.4 °F 77.2 °F 29.86 in SSW 3.0 mph 9.0 mph 90 % 0.00 in
03:15 80.4 °F 77.2 °F 29.86 in SSW 6.0 mph 9.0 mph 90 % 0.00 in
03:20 80.4 °F 77.2 °F 29.86 in SE 3.0 mph 10.0 mph 90 % 0.00 in
03:25 80.4 °F 77.2 °F 29.86 in SW 6.0 mph 10.0 mph 90 % 0.00 in
03:30 80.4 °F 77.2 °F 29.86 in SSE 6.0 mph 10.0 mph 90 % 0.00 in
03:35 80.2 °F 77.0 °F 29.86 in SSW 3.0 mph 10.0 mph 90 % 0.00 in
03:40 80.2 °F 77.0 °F 29.86 in SSW 13.0 mph 13.0 mph 90 % 0.00 in
03:45 80.2 °F 77.0 °F 29.86 in SSE 5.0 mph 13.0 mph 90 % 0.00 in
03:50 80.2 °F 77.0 °F 29.86 in South 4.0 mph 13.0 mph 90 % 0.00 in
03:55 80.2 °F 77.0 °F 29.86 in South 6.0 mph 13.0 mph 90 % 0.00 in
04:00 80.4 °F 77.2 °F 29.87 in SE 8.0 mph 12.0 mph 90 % 0.00 in
04:05 80.4 °F 77.2 °F 29.87 in SE 3.0 mph 14.0 mph 90 % 0.00 in
04:10 80.4 °F 77.2 °F 29.87 in SSW 3.0 mph 14.0 mph 90 % 0.00 in
04:15 80.2 °F 77.0 °F 29.87 in SSW 5.0 mph 14.0 mph 90 % 0.00 in
04:20 80.1 °F 77.2 °F 29.87 in South 4.0 mph 10.0 mph 91 % 0.00 in
04:25 79.9 °F 77.0 °F 29.86 in SSE 5.0 mph 10.0 mph 91 % 0.00 in
04:30 79.9 °F 77.0 °F 29.86 in SSE 4.0 mph 10.0 mph 91 % 0.00 in
04:35 79.9 °F 77.0 °F 29.86 in SSW 2.0 mph 10.0 mph 91 % 0.00 in
04:40 79.9 °F 77.0 °F 29.87 in South 5.0 mph 10.0 mph 91 % 0.00 in
04:45 79.9 °F 77.0 °F 29.87 in SSE 4.0 mph 9.0 mph 91 % 0.00 in
04:51 79.9 °F 77.0 °F 29.87 in SE 3.0 mph 9.0 mph 91 % 0.00 in
04:56 80.1 °F 77.2 °F 29.86 in SSE 4.0 mph 9.0 mph 91 % 0.00 in
05:01 80.1 °F 77.2 °F 29.87 in South 3.0 mph 9.0 mph 91 % 0.00 in
05:06 80.1 °F 76.8 °F 29.87 in SE 4.0 mph 7.0 mph 90 % 0.00 in
05:11 80.1 °F 76.8 °F 29.87 in South 3.0 mph 8.0 mph 90 % 0.00 in
05:15 80.1 °F 76.8 °F 29.87 in SSE 4.0 mph 8.0 mph 90 % 0.00 in
05:25 80.2 °F 77.0 °F 29.86 in South 8.0 mph 8.0 mph 90 % 0.00 in
05:30 80.2 °F 76.6 °F 29.87 in SSE 5.0 mph 11.0 mph 89 % 0.00 in
05:35 80.2 °F 76.6 °F 29.87 in South 4.0 mph 11.0 mph 89 % 0.00 in
05:40 80.2 °F 76.6 °F 29.87 in SSW 5.0 mph 11.0 mph 89 % 0.00 in
05:45 80.4 °F 76.8 °F 29.87 in SSE 7.0 mph 11.0 mph 89 % 0.00 in
05:50 80.4 °F 76.8 °F 29.87 in SE 4.0 mph 11.0 mph 89 % 0.00 in
05:55 80.4 °F 76.8 °F 29.87 in SE 5.0 mph 13.0 mph 89 % 0.00 in
06:00 80.4 °F 76.8 °F 29.87 in South 3.0 mph 13.0 mph 89 % 0.00 in
06:05 80.4 °F 76.8 °F 29.88 in SE 4.0 mph 13.0 mph 89 % 0.00 in
06:10 80.4 °F 76.8 °F 29.88 in South 6.0 mph 8.0 mph 89 % 0.00 in
06:15 80.4 °F 76.8 °F 29.88 in SSW 6.0 mph 8.0 mph 89 % 0.00 in
06:20 80.4 °F 76.8 °F 29.88 in SE 5.0 mph 13.0 mph 89 % 0.00 in
06:25 80.4 °F 76.8 °F 29.88 in South 3.0 mph 13.0 mph 89 % 0.00 in
06:30 80.4 °F 76.8 °F 29.89 in South 2.0 mph 13.0 mph 89 % 0.00 in
06:35 80.4 °F 76.8 °F 29.89 in South 5.0 mph 9.0 mph 89 % 0.00 in
06:40 80.2 °F 76.6 °F 29.89 in SW 3.0 mph 8.0 mph 89 % 0.00 in
06:45 80.2 °F 76.6 °F 29.89 in SSW 5.0 mph 11.0 mph 89 % 0.00 in
06:50 80.4 °F 76.8 °F 29.89 in South 3.0 mph 11.0 mph 89 % 0.00 in
06:55 80.4 °F 76.8 °F 29.89 in SSW 6.0 mph 11.0 mph 89 % 0.00 in
07:00 80.4 °F 76.8 °F 29.89 in ESE 4.0 mph 10.0 mph 89 % 0.00 in
07:05 80.4 °F 76.8 °F 29.89 in SSE 3.0 mph 11.0 mph 89 % 0.00 in
07:10 80.4 °F 76.5 °F 29.90 in South 3.0 mph 11.0 mph 88 % 0.00 in
07:16 80.4 °F 76.5 °F 29.89 in SSE 4.0 mph 11.0 mph 88 % 0.00 in
07:21 80.6 °F 76.6 °F 29.89 in SSE 5.0 mph 9.0 mph 88 % 0.00 in
07:26 80.8 °F 76.8 °F 29.90 in SE 5.0 mph 9.0 mph 88 % 0.00 in
07:31 80.8 °F 76.8 °F 29.90 in South 4.0 mph 9.0 mph 88 % 0.00 in
07:36 80.8 °F 76.8 °F 29.90 in SSW 4.0 mph 8.0 mph 88 % 0.00 in
07:41 81.0 °F 77.0 °F 29.90 in SE 4.0 mph 8.0 mph 88 % 0.00 in
07:46 80.8 °F 76.8 °F 29.90 in SSE 7.0 mph 9.0 mph 88 % 0.00 in
07:51 81.0 °F 77.0 °F 29.90 in SSE 4.0 mph 9.0 mph 88 % 0.00 in
07:56 81.1 °F 77.2 °F 29.90 in SE 2.0 mph 9.0 mph 88 % 0.00 in
08:01 81.1 °F 76.8 °F 29.91 in South 4.0 mph 9.0 mph 87 % 0.00 in
08:06 81.1 °F 77.2 °F 29.90 in ESE 4.0 mph 9.0 mph 88 % 0.00 in
08:11 81.1 °F 76.8 °F 29.91 in SW 8.0 mph 9.0 mph 87 % 0.00 in
08:16 81.1 °F 76.8 °F 29.91 in SSE 8.0 mph 11.0 mph 87 % 0.00 in
08:21 81.1 °F 76.8 °F 29.91 in SSW 4.0 mph 11.0 mph 87 % 0.00 in
08:26 81.3 °F 77.0 °F 29.91 in SE 2.0 mph 11.0 mph 87 % 0.00 in
08:31 81.3 °F 77.0 °F 29.91 in SE 5.0 mph 10.0 mph 87 % 0.00 in
08:36 81.7 °F 77.4 °F 29.91 in SE 4.0 mph 11.0 mph 87 % 0.00 in
08:41 81.9 °F 77.2 °F 29.91 in SSE 7.0 mph 11.0 mph 86 % 0.00 in
08:46 82.0 °F 77.4 °F 29.91 in South 5.0 mph 11.0 mph 86 % 0.00 in
08:51 82.0 °F 77.4 °F 29.91 in SSE 4.0 mph 9.0 mph 86 % 0.00 in
08:52 82.0 °F 77.4 °F 29.91 in SE 4.0 mph 9.0 mph 86 % 0.00 in
08:57 82.0 °F 77.4 °F 29.92 in South 7.0 mph 11.0 mph 86 % 0.00 in
09:02 82.2 °F 77.2 °F 29.91 in SSW 4.0 mph 12.0 mph 85 % 0.00 in
09:07 82.4 °F 77.4 °F 29.91 in SSE 5.0 mph 12.0 mph 85 % 0.00 in
09:12 82.6 °F 77.5 °F 29.91 in SE 5.0 mph 12.0 mph 85 % 0.00 in
09:17 82.8 °F 77.4 °F 29.91 in SE 3.0 mph 10.0 mph 84 % 0.00 in
09:22 83.1 °F 77.4 °F 29.92 in SSE 5.0 mph 10.0 mph 83 % 0.00 in
09:27 83.5 °F 77.7 °F 29.92 in South 4.0 mph 10.0 mph 83 % 0.00 in
09:32 83.7 °F 77.5 °F 29.92 in SSE 9.0 mph 9.0 mph 82 % 0.00 in
09:37 84.0 °F 77.9 °F 29.92 in SW 5.0 mph 10.0 mph 82 % 0.00 in
09:42 84.4 °F 77.9 °F 29.92 in SSE 4.0 mph 10.0 mph 81 % 0.00 in
09:47 84.6 °F 77.7 °F 29.92 in SE 3.0 mph 10.0 mph 80 % 0.00 in
09:52 84.7 °F 77.2 °F 29.92 in South 7.0 mph 16.0 mph 78 % 0.00 in
10:02 84.9 °F 77.4 °F 29.92 in SSE 8.0 mph 16.0 mph 78 % 0.00 in
10:07 85.6 °F 77.5 °F 29.92 in SSE 6.0 mph 15.0 mph 77 % 0.00 in
10:12 86.2 °F 77.7 °F 29.92 in SW 7.0 mph 13.0 mph 76 % 0.00 in
10:17 86.4 °F 77.9 °F 29.92 in SSW 5.0 mph 13.0 mph 76 % 0.00 in
10:22 86.5 °F 78.1 °F 29.92 in SSW 3.0 mph 13.0 mph 76 % 0.00 in
10:27 87.3 °F 78.4 °F 29.92 in SSW 5.0 mph 13.0 mph 75 % 0.00 in
10:32 88.2 °F 78.4 °F 29.92 in SSW 7.0 mph 9.0 mph 73 % 0.00 in
10:37 88.3 °F 78.1 °F 29.92 in ESE 8.0 mph 13.0 mph 72 % 0.00 in
10:40 88.2 °F 77.9 °F 29.92 in SSE 7.0 mph 13.0 mph 72 % 0.00 in
10:45 87.6 °F 77.9 °F 29.92 in SSW 7.0 mph 13.0 mph 73 % 0.00 in
10:50 88.0 °F 78.3 °F 29.91 in South 7.0 mph 12.0 mph 73 % 0.00 in
10:55 88.2 °F 77.9 °F 29.92 in SSE 5.0 mph 13.0 mph 72 % 0.00 in
11:00 88.7 °F 78.1 °F 29.92 in SSW 9.0 mph 14.0 mph 71 % 0.00 in
11:05 89.1 °F 78.4 °F 29.91 in South 3.0 mph 14.0 mph 71 % 0.00 in
11:10 89.4 °F 78.8 °F 29.91 in SSE 5.0 mph 14.0 mph 71 % 0.00 in
11:15 90.0 °F 78.4 °F 29.91 in South 7.0 mph 13.0 mph 69 % 0.00 in
11:20 89.8 °F 78.3 °F 29.91 in South 6.0 mph 16.0 mph 69 % 0.00 in
11:25 90.0 °F 77.9 °F 29.91 in SSW 9.0 mph 16.0 mph 68 % 0.00 in
11:30 90.3 °F 78.8 °F 29.91 in SSE 5.0 mph 16.0 mph 69 % 0.00 in
11:35 90.7 °F 78.6 °F 29.92 in SSE 8.0 mph 14.0 mph 68 % 0.00 in
11:40 90.7 °F 78.3 °F 29.91 in SE 9.0 mph 15.0 mph 67 % 0.00 in
11:45 90.3 °F 77.9 °F 29.91 in SE 10.0 mph 15.0 mph 67 % 0.00 in
11:49 90.0 °F 77.9 °F 29.91 in ESE 9.0 mph 15.0 mph 68 % 0.00 in
11:54 89.6 °F 77.5 °F 29.91 in SSE 5.0 mph 15.0 mph 68 % 0.00 in
11:59 89.4 °F 77.9 °F 29.91 in South 5.0 mph 14.0 mph 69 % 0.00 in
12:04 89.4 °F 78.3 °F 29.91 in SE 8.0 mph 14.0 mph 70 % 0.00 in
12:09 89.8 °F 78.3 °F 29.91 in South 3.0 mph 14.0 mph 69 % 0.00 in
12:14 90.1 °F 78.6 °F 29.91 in SSE 5.0 mph 14.0 mph 69 % 0.00 in
12:19 90.3 °F 77.9 °F 29.91 in SE 7.0 mph 14.0 mph 67 % 0.00 in
12:24 90.7 °F 78.3 °F 29.91 in SE 9.0 mph 13.0 mph 67 % 0.00 in
12:29 90.7 °F 77.7 °F 29.91 in SW 9.0 mph 20.0 mph 66 % 0.00 in
12:34 90.9 °F 77.9 °F 29.91 in ESE 7.0 mph 20.0 mph 66 % 0.00 in
12:39 91.2 °F 78.3 °F 29.91 in South 9.0 mph 20.0 mph 66 % 0.00 in
12:44 91.8 °F 77.9 °F 29.91 in SE 7.0 mph 15.0 mph 64 % 0.00 in
12:45 91.8 °F 77.9 °F 29.91 in SSW 7.0 mph 15.0 mph 64 % 0.00 in
12:50 91.6 °F 77.2 °F 29.91 in SSE 8.0 mph 15.0 mph 63 % 0.00 in
12:55 91.6 °F 78.1 °F 29.91 in SSE 10.0 mph 15.0 mph 65 % 0.00 in
13:01 91.8 °F 77.9 °F 29.90 in East 8.0 mph 15.0 mph 64 % 0.00 in
13:06 91.8 °F 77.4 °F 29.90 in SSE 8.0 mph 16.0 mph 63 % 0.00 in
13:11 91.9 °F 78.1 °F 29.90 in SSE 11.0 mph 16.0 mph 64 % 0.00 in
13:16 92.5 °F 77.5 °F 29.90 in South 5.0 mph 16.0 mph 62 % 0.00 in
13:21 93.4 °F 77.9 °F 29.90 in SSW 9.0 mph 15.0 mph 61 % 0.00 in
13:26 92.5 °F 77.5 °F 29.90 in South 8.0 mph 15.0 mph 62 % 0.00 in
13:31 92.5 °F 78.1 °F 29.90 in South 5.0 mph 13.0 mph 63 % 0.00 in
13:36 92.3 °F 77.4 °F 29.89 in South 10.0 mph 15.0 mph 62 % 0.00 in
13:41 92.5 °F 78.1 °F 29.89 in SW 3.0 mph 15.0 mph 63 % 0.00 in
13:46 92.8 °F 77.4 °F 29.89 in SSE 8.0 mph 15.0 mph 61 % 0.00 in
13:51 93.0 °F 78.1 °F 29.89 in SSE 8.0 mph 15.0 mph 62 % 0.00 in
13:56 93.0 °F 78.6 °F 29.89 in SW 6.0 mph 15.0 mph 63 % 0.00 in
14:01 93.6 °F 77.5 °F 29.88 in SSW 8.0 mph 16.0 mph 60 % 0.00 in
14:06 93.4 °F 76.8 °F 29.88 in SSE 8.0 mph 20.0 mph 59 % 0.00 in
14:11 93.4 °F 77.4 °F 29.88 in ESE 11.0 mph 20.0 mph 60 % 0.00 in
14:16 93.6 °F 77.5 °F 29.88 in SE 12.0 mph 20.0 mph 60 % 0.00 in
14:21 93.6 °F 77.0 °F 29.88 in SSW 7.0 mph 16.0 mph 59 % 0.00 in
14:26 93.6 °F 77.5 °F 29.88 in SE 6.0 mph 16.0 mph 60 % 0.00 in
14:31 92.7 °F 77.2 °F 29.88 in SSE 3.0 mph 16.0 mph 61 % 0.00 in
14:36 92.7 °F 77.7 °F 29.87 in SSE 4.0 mph 12.0 mph 62 % 0.00 in
14:41 92.5 °F 76.6 °F 29.88 in South 6.0 mph 12.0 mph 60 % 0.00 in
14:46 91.9 °F 76.6 °F 29.87 in ESE 9.0 mph 19.0 mph 61 % 0.00 in
14:51 92.1 °F 76.3 °F 29.87 in SE 6.0 mph 19.0 mph 60 % 0.00 in
14:56 92.1 °F 76.6 °F 29.87 in South 2.0 mph 19.0 mph 61 % 0.00 in
15:01 92.8 °F 76.8 °F 29.86 in SSW 8.0 mph 15.0 mph 60 % 0.00 in
15:06 93.4 °F 77.4 °F 29.86 in SE 9.0 mph 15.0 mph 60 % 0.00 in
15:11 93.7 °F 77.2 °F 29.86 in SSW 7.0 mph 14.0 mph 59 % 0.00 in
15:16 93.4 °F 76.8 °F 29.86 in SSE 4.0 mph 14.0 mph 59 % 0.00 in
15:21 93.4 °F 76.8 °F 29.86 in SE 6.0 mph 17.0 mph 59 % 0.00 in
15:26 93.4 °F 76.8 °F 29.86 in SE 12.0 mph 17.0 mph 59 % 0.00 in
15:31 93.4 °F 77.4 °F 29.86 in SSE 9.0 mph 17.0 mph 60 % 0.00 in
15:36 93.4 °F 77.9 °F 29.86 in South 8.0 mph 15.0 mph 61 % 0.00 in
15:41 93.9 °F 76.3 °F 29.86 in ESE 7.0 mph 15.0 mph 57 % 0.00 in
15:46 94.3 °F 77.2 °F 29.85 in South 4.0 mph 15.0 mph 58 % 0.00 in
15:51 94.3 °F 76.1 °F 29.85 in SSE 8.0 mph 18.0 mph 56 % 0.00 in
15:56 94.1 °F 77.0 °F 29.85 in WSW 8.0 mph 18.0 mph 58 % 0.00 in
16:01 94.1 °F 77.0 °F 29.85 in SE 12.0 mph 18.0 mph 58 % 0.00 in
16:06 93.9 °F 76.8 °F 29.85 in SSE 8.0 mph 14.0 mph 58 % 0.00 in
16:08 93.9 °F 76.8 °F 29.85 in ESE 8.0 mph 14.0 mph 58 % 0.00 in
16:13 93.4 °F 76.5 °F 29.85 in ESE 9.0 mph 15.0 mph 58 % 0.00 in
16:18 92.7 °F 77.2 °F 29.84 in SE 6.0 mph 15.0 mph 61 % 0.00 in
16:23 92.8 °F 76.8 °F 29.84 in South 6.0 mph 15.0 mph 60 % 0.00 in
16:28 93.0 °F 77.0 °F 29.84 in South 7.0 mph 14.0 mph 60 % 0.00 in
16:33 93.4 °F 76.8 °F 29.84 in SSE 8.0 mph 14.0 mph 59 % 0.00 in
16:38 93.6 °F 77.0 °F 29.84 in SE 5.0 mph 14.0 mph 59 % 0.00 in
16:43 93.4 °F 76.8 °F 29.84 in SSE 4.0 mph 18.0 mph 59 % 0.00 in
16:48 93.4 °F 76.8 °F 29.84 in SSE 9.0 mph 18.0 mph 59 % 0.00 in
16:53 93.4 °F 76.5 °F 29.84 in SE 6.0 mph 18.0 mph 58 % 0.00 in
16:58 93.0 °F 76.6 °F 29.84 in SSE 11.0 mph 17.0 mph 59 % 0.00 in
17:03 92.8 °F 76.5 °F 29.84 in ESE 9.0 mph 14.0 mph 59 % 0.00 in
17:08 92.8 °F 75.9 °F 29.84 in SSE 9.0 mph 14.0 mph 58 % 0.00 in
17:13 92.7 °F 75.7 °F 29.84 in SE 7.0 mph 17.0 mph 58 % 0.00 in
17:18 92.5 °F 73.9 °F 29.84 in SSE 13.0 mph 17.0 mph 55 % 0.00 in
17:23 92.5 °F 75.6 °F 29.84 in ESE 6.0 mph 17.0 mph 58 % 0.00 in
17:28 92.5 °F 75.0 °F 29.84 in ESE 7.0 mph 14.0 mph 57 % 0.00 in
17:33 92.5 °F 74.5 °F 29.84 in SSE 5.0 mph 14.0 mph 56 % 0.00 in
17:38 91.9 °F 73.9 °F 29.84 in SSW 8.0 mph 14.0 mph 56 % 0.00 in
17:43 91.9 °F 74.5 °F 29.84 in SE 5.0 mph 14.0 mph 57 % 0.00 in
17:48 91.9 °F 75.6 °F 29.84 in SSW 6.0 mph 14.0 mph 59 % 0.00 in
17:53 91.8 °F 75.4 °F 29.84 in South 10.0 mph 15.0 mph 59 % 0.00 in
17:58 91.6 °F 75.2 °F 29.84 in East 4.0 mph 15.0 mph 59 % 0.00 in
18:03 91.6 °F 74.1 °F 29.84 in SE 8.0 mph 15.0 mph 57 % 0.00 in
18:08 91.6 °F 74.7 °F 29.84 in SE 6.0 mph 15.0 mph 58 % 0.00 in
18:13 91.6 °F 75.2 °F 29.84 in South 12.0 mph 15.0 mph 59 % 0.00 in
18:18 91.0 °F 75.7 °F 29.84 in South 13.0 mph 15.0 mph 61 % 0.00 in
18:19 91.0 °F 75.7 °F 29.84 in SSE 8.0 mph 15.0 mph 61 % 0.00 in
18:24 90.7 °F 75.9 °F 29.83 in SSE 5.0 mph 15.0 mph 62 % 0.00 in
18:29 90.7 °F 75.9 °F 29.83 in SW 10.0 mph 15.0 mph 62 % 0.00 in
18:34 90.3 °F 75.9 °F 29.83 in SE 5.0 mph 17.0 mph 63 % 0.00 in
18:39 90.1 °F 76.3 °F 29.83 in East 10.0 mph 17.0 mph 64 % 0.00 in
18:44 89.8 °F 75.9 °F 29.83 in WSW 8.0 mph 17.0 mph 64 % 0.00 in
18:49 89.4 °F 76.6 °F 29.83 in SE 7.0 mph 16.0 mph 66 % 0.00 in
18:54 89.2 °F 75.9 °F 29.83 in SE 7.0 mph 16.0 mph 65 % 0.00 in
18:59 89.1 °F 76.3 °F 29.83 in SW 8.0 mph 13.0 mph 66 % 0.00 in
19:04 88.9 °F 76.1 °F 29.83 in SE 7.0 mph 13.0 mph 66 % 0.00 in
19:09 88.3 °F 75.9 °F 29.83 in SSE 6.0 mph 17.0 mph 67 % 0.00 in
19:14 88.0 °F 76.1 °F 29.83 in SSE 6.0 mph 17.0 mph 68 % 0.00 in
19:19 87.6 °F 76.1 °F 29.83 in ENE 6.0 mph 17.0 mph 69 % 0.00 in
19:24 87.4 °F 76.5 °F 29.83 in ESE 11.0 mph 13.0 mph 70 % 0.00 in
19:29 87.1 °F 76.5 °F 29.83 in ESE 6.0 mph 14.0 mph 71 % 0.00 in
19:34 86.7 °F 76.6 °F 29.83 in South 5.0 mph 14.0 mph 72 % 0.00 in
19:39 86.5 °F 76.8 °F 29.83 in South 6.0 mph 14.0 mph 73 % 0.00 in
19:44 86.4 °F 76.6 °F 29.83 in South 3.0 mph 13.0 mph 73 % 0.00 in
19:49 86.2 °F 76.5 °F 29.83 in SE 4.0 mph 13.0 mph 73 % 0.00 in
19:55 85.8 °F 76.1 °F 29.83 in SSE 5.0 mph 11.0 mph 73 % 0.00 in
20:00 85.5 °F 75.7 °F 29.83 in South 7.0 mph 11.0 mph 73 % 0.00 in
20:05 85.3 °F 76.1 °F 29.83 in SE 4.0 mph 12.0 mph 74 % 0.00 in
20:10 84.9 °F 75.7 °F 29.83 in East 5.0 mph 12.0 mph 74 % 0.00 in
20:15 84.6 °F 75.7 °F 29.84 in SSE 2.0 mph 12.0 mph 75 % 0.00 in
20:20 84.4 °F 75.6 °F 29.84 in SE 3.0 mph 11.0 mph 75 % 0.00 in
20:25 84.2 °F 75.7 °F 29.83 in South 3.0 mph 11.0 mph 76 % 0.00 in
20:30 83.8 °F 75.4 °F 29.84 in SSE 2.0 mph 11.0 mph 76 % 0.00 in
20:35 83.7 °F 75.7 °F 29.84 in SE 5.0 mph 11.0 mph 77 % 0.00 in
20:40 83.3 °F 75.7 °F 29.84 in SSW 1.0 mph 10.0 mph 78 % 0.00 in
20:45 83.1 °F 75.9 °F 29.84 in SE 2.0 mph 9.0 mph 79 % 0.00 in
20:50 82.9 °F 75.7 °F 29.84 in SSE 4.0 mph 9.0 mph 79 % 0.00 in
20:55 82.8 °F 75.9 °F 29.85 in ESE 7.0 mph 8.0 mph 80 % 0.00 in
21:00 82.8 °F 75.9 °F 29.84 in South 4.0 mph 9.0 mph 80 % 0.00 in
21:05 82.4 °F 75.6 °F 29.84 in South 3.0 mph 9.0 mph 80 % 0.00 in
21:10 82.2 °F 75.4 °F 29.85 in SE 6.0 mph 9.0 mph 80 % 0.00 in
21:15 82.0 °F 75.6 °F 29.85 in South 4.0 mph 9.0 mph 81 % 0.00 in
21:20 81.9 °F 75.4 °F 29.85 in SE 5.0 mph 8.0 mph 81 % 0.00 in
21:25 81.9 °F 75.4 °F 29.85 in SSE 10.0 mph 14.0 mph 81 % 0.00 in
21:30 81.9 °F 75.7 °F 29.85 in ESE 9.0 mph 14.0 mph 82 % 0.00 in
21:35 81.7 °F 75.6 °F 29.85 in SSE 5.0 mph 14.0 mph 82 % 0.00 in
21:40 81.5 °F 75.9 °F 29.85 in South 4.0 mph 13.0 mph 83 % 0.00 in
21:45 81.3 °F 75.7 °F 29.85 in South 2.0 mph 12.0 mph 83 % 0.00 in
21:50 81.1 °F 75.9 °F 29.85 in South 5.0 mph 10.0 mph 84 % 0.00 in
21:55 81.1 °F 75.9 °F 29.85 in SE 2.0 mph 11.0 mph 84 % 0.00 in
22:00 81.0 °F 75.7 °F 29.85 in SSE 4.0 mph 11.0 mph 84 % 0.00 in
22:05 81.0 °F 76.1 °F 29.85 in SE 4.0 mph 11.0 mph 85 % 0.00 in
22:10 80.8 °F 75.9 °F 29.85 in South 4.0 mph 11.0 mph 85 % 0.00 in
22:15 80.8 °F 75.9 °F 29.85 in SSE 4.0 mph 10.0 mph 85 % 0.00 in
22:20 80.6 °F 75.7 °F 29.85 in South 6.0 mph 11.0 mph 85 % 0.00 in
22:25 80.6 °F 76.1 °F 29.85 in SSW 10.0 mph 11.0 mph 86 % 0.00 in
22:30 80.4 °F 75.9 °F 29.85 in SE 5.0 mph 13.0 mph 86 % 0.00 in
22:35 80.4 °F 75.9 °F 29.85 in SE 7.0 mph 13.0 mph 86 % 0.00 in
22:40 80.4 °F 75.9 °F 29.85 in SE 6.0 mph 13.0 mph 86 % 0.00 in
22:45 80.4 °F 76.1 °F 29.85 in SSE 5.0 mph 12.0 mph 87 % 0.00 in
22:50 80.2 °F 76.1 °F 29.85 in South 6.0 mph 12.0 mph 87 % 0.00 in
22:55 80.2 °F 76.1 °F 29.85 in SSW 4.0 mph 10.0 mph 87 % 0.00 in
23:00 80.1 °F 76.1 °F 29.85 in SSE 3.0 mph 10.0 mph 88 % 0.00 in
23:05 80.1 °F 76.1 °F 29.85 in South 3.0 mph 10.0 mph 88 % 0.00 in
23:10 80.1 °F 76.1 °F 29.85 in South 4.0 mph 12.0 mph 88 % 0.00 in
23:15 80.1 °F 76.1 °F 29.86 in SSE 6.0 mph 12.0 mph 88 % 0.00 in
23:20 80.1 °F 76.1 °F 29.86 in SE 7.0 mph 12.0 mph 88 % 0.00 in
23:25 80.1 °F 76.1 °F 29.85 in SSE 6.0 mph 9.0 mph 88 % 0.00 in
23:30 80.2 °F 76.3 °F 29.85 in SSW 2.0 mph 11.0 mph 88 % 0.00 in
23:35 80.2 °F 76.3 °F 29.85 in SSE 4.0 mph 11.0 mph 88 % 0.00 in
23:41 80.2 °F 76.3 °F 29.84 in South 5.0 mph 11.0 mph 88 % 0.00 in
23:45 80.2 °F 76.3 °F 29.84 in East 7.0 mph 11.0 mph 88 % 0.00 in
23:50 80.2 °F 76.3 °F 29.83 in SSE 6.0 mph 11.0 mph 88 % 0.00 in
23:55 80.2 °F 76.6 °F 29.83 in SSE 5.0 mph 13.0 mph 89 % 0.00 in
Spring, Texas: Villages of Bridgestone
Compliments of Weather Underground - 2.75 mb

Script developed by  Jim McMurry - jmcmurry@mwt.net Adapted for the template by  Wim van der Kuil - Leuven-Template.eu

You find our weather info also at:

UK Metoffice

WeatherCloud

Weather Underground

Mid-South Weather Network

AWEKAS

Citizen Weather Observer Program (CWOP)

HAMweather, WeatherForYou, PWS Weather

Equipment we use:

Weather-station
Davis Vantage Vue

Weather-program
Meteohub

Weather-server
Debian 7.9 x86 (Guest)

Provider
DreamHost

Davis Vantage Vue

Meteohub

Debian 7.9 x86 (Guest)

DreamHost